STARLINK-5695, 55485

Orbit data source: Space-Track

STARLINK-5695, 55485 is a payload satellite owned by SpaceX/Seattle (US) in LEO that was launched on Thu, 02 Feb 2023 UTC via an FALCON 9 launch vehicle from the Air Force Eastern Test Range (AFETR). Payload-class satellites include a variety of spacecraft equipped with specific instruments for various scientific and technological missions. These include communications satellites like Starlink; space stations such as the ISS; scientific satellites like the Hubble; Earth observation satellites from companies like Planet Labs, Umbra, and HawkEye 360; GPS; miniature CubeSats for education and research; and military/defense satellites.

Loading next visibility...
Identifier
55485, 2023-015AN
Orbit
LEO
Country
Flag of USUS
Related business
Manufacturer
SpaceX/Seattle
Mission
Operational Commercial Communications
Bus & Motor
STARLINK, Unknown motor
Mass
305 kg wet, ~290 kg dry
Launch date (UTC)
2023-02-02 (3 years ago)
Launch vehicle
FALCON 9
Launch site
Air Force Eastern Test Range (AFETR)
Object type
Payload
Rocket body
Debris
Shape & HBR
Box + 1 Pan, 10.1 m
Radar Cross Section
13.562 m², Large (>1 m²)

Expand to show TLE details & history
Last TLE update: 21 hours ago

TLE from 21 hours ago
0 STARLINK-5695
1 55485U 23015AN  26125.05986499  .00001281  00000-0  56076-4 0  9994
2 55485  43.0035  21.6149 0001470 269.9152  90.1531 15.27575569179214
Epoch: 2026-05-05T01:26Z
TLE epoch observation values (Epoch: 2026-05-05T01:26:12.335Z)
Latitude
-0.00002°
Longitude
137.12335°
Altitude
482.841 km
Speed
7.626 km/s
True Right ascension
01h 26m 27s
True Declination
0° 00' 00"
Sunlit
Object was in daylight at epoch
Visualization orbit readout
Latitude
Unknown
Longitude
Unknown
Altitude
Unknown
Speed
Unknown
Apparent Right ascension
Unknown
Apparent Declination
Unknown
Sunlit
N/A
Visualization observer readout
Local Sidereal Time
06:27:54
Azimuth
Unknown
Elevation
Unknown
Doppler factor
Unknown
Orbital elements
Apogee altitude
486.016 km
Perigee altitude
483.998 km
Semi-major axis
6,863.144 km
Eccentricity
0.00015
Inclination
43.0035°
RAAN
21.6149°
Arg. of periapsis
269.9152°
True anomaly
90.16994°
Mean anomaly
90.1531°
Eccentric anomaly
90.16152°
Mean motion
3.81732 °/min
Orbital period
94.31 mins
BSTAR
0.000056076
Loading maneuver chart data...
Computing Atmospheric mass density...
Loading historical data...
Loading historical data...
Loading historical data...
Loading historical data...
Loading historical data...
Loading historical data...
Loading historical data...

Documentation

Showing up to 5 results
|